Regional Weather Roundup
Issued by NWS

Home | Current Version | Previous Version | Text Only | Print | Product List | Glossary Off
Versions: 1 2 3 4 5 6 7 8 9 10 11 12 13 14 15 16 17 18 19 20 21 22 23 24 25 26 27 28 29 30 31 32 33 34 35 36 37 38 39 40 41 42 43 44 45 46 47 48 49 50

000
ASUS43 KDTX 020810
RWRMI
MICHIGAN HOURLY REGIONAL WEATHER ROUNDUP
NATIONAL WEATHER SERVICE DETROIT/PONTIAC MI
400 AM EDT SUN AUG 02 2015

NOTE: "FAIR" INDICATES FEW OR NO CLOUDS BELOW 12,000 FEET WITH NO
SIGNIFICANT WEATHER AND/OR OBSTRUCTION TO VISIBILITY.

MIZ047>049-052>055-059>063-066>070-074>076-081>083-020900-
SOUTHEAST LOWER MICHIGAN

CITY           SKY/WX    TMP DP  RH WIND       PRES   REMARKS
ADRIAN         CLEAR     61  58  90 W3        29.91S
ALMA           CLEAR     57  55  93 CALM      29.86F
ANN ARBOR      CLEAR     59  56  89 CALM      29.89S
BAD AXE        CLEAR     57  51  81 S3        29.86S
DETROIT CITY   CLEAR     66  54  65 W5        29.88F
DETROIT        PTCLDY    65  57  75 S3        29.89S
FLINT          CLEAR     59  52  77 SW3       29.88S
GROSSE ILE     PTCLDY    66  57  72 SW5       29.88S
HILLSDALE      CLEAR     67  63  86 SW3       29.91F
HOWELL         CLEAR     62  55  79 SW3       29.89S

CITY           SKY/WX    TMP DP  RH WIND       PRES   REMARKS
JACKSON        CLEAR     62  57  83 SW6       29.89F
LAMBERTVILLE   CLEAR     64  58  83 CALM      29.90S
LANSING        CLEAR     62  55  77 CALM      29.88S
LAPEER         NOT AVBL
MASON          CLEAR     58  54  86 CALM      29.89S
MONROE         CLEAR     62  58  86 CALM      29.88F
MT. CLEMENS    CLEAR     64  54  68 W5        29.86S
PONTIAC        CLEAR     63  55  75 CALM      29.88S
PORT HOPE        N/A     62  56  80 SW7       29.82F
PORT HURON     CLEAR     54  52  94 CALM      29.88S
TRI CITIES     CLEAR     61  53  75 SW7       29.86S
YPSILANTI      CLEAR     64  56  75 SW3       29.89F
$$
MIZ043>046-050>051-056>058-064>065-071>073-077>080-020900-
SOUTHWEST LOWER MICHIGAN

CITY           SKY/WX    TMP DP  RH WIND       PRES   REMARKS
BATTLE CREEK   CLEAR     66  59  78 SW5       29.89F
BENTON HARBOR  CLEAR     74  66  76 SW10      29.88R
BIG RAPIDS     CLEAR     57  55  91 CALM      29.85S
COLDWATER      CLEAR     63  60  90 CALM      29.90F
HOLLAND        CLEAR     64  58  80 S3        29.86S
GRAND RAPIDS   CLEAR     64  57  78 S7        29.86S
KALAMAZOO      CLEAR     67  61  81 SW7       29.88F
MARSHALL       CLEAR     63  58  83 S3        29.89S
MUSKEGON       CLEAR     65  59  81 SE3       29.84F
$$
MIZ016>042-020900-
NORTHERN LOWER MICHIGAN

CITY           SKY/WX    TMP DP  RH WIND       PRES   REMARKS
ALPENA         CLEAR     60  52  74 SW6       29.78F
BEAVER ISLAND    N/A     67  62  83 S7        29.74F HAZE
BELLAIRE       CLEAR     62  53  73 S5        29.79S
CADILLAC       CLEAR     55  51  86 CALM      29.84S
CHARLEVOIX     CLEAR     66  56  68 S8        29.79S
FRANKFORT      SUNNY     70  65  83 SW7       29.79F
GAYLORD        CLEAR     63  50  62 SW9       29.81S
GRAYLING       CLEAR     62  53  72 SW6       29.82F
HARBOR SPRINGS CLEAR     61  55  81 N3        29.76F
HOUGHTON LAKE  CLEAR     64  56  75 SW10      29.84F
MANISTEE       CLEAR     55  52  88 E3        29.82S
OSCODA         CLEAR     58  52  81 SW7       29.81S
PELLSTON       CLEAR     65  55  70 SW3       29.76F
TRAVERSE CITY  CLEAR     65  55  70 CALM      29.77F
$$
MIZ007>008-015-020900-
EASTERN UPPER MICHIGAN

CITY           SKY/WX    TMP DP  RH WIND       PRES   REMARKS
KINROSS        MOCLDY    63  61  94 S6        29.72S
MACKINAC ISLAN   N/A     67  59  75 SW8       29.73F
NEWBERRY       CLEAR     62  57  83 SW12      29.70F
S. S. MARIE    MOCLDY    60  58  92 VRB3      29.70F
$$
MIZ004>006-011>014-085-020900-
CENTRAL UPPER MICHIGAN

CITY           SKY/WX    TMP DP  RH WIND       PRES   REMARKS
MANISTIQUE     CLEAR     63  57  82 SW5       29.71F
ESCANABA       CLEAR     61  54  77 W5        29.71F
MENOMINEE      PTCLDY    64  52  63 SW7       29.73F
SAWYER-GWINN   CLEAR     62  53  72 SW7       29.71S
$$
MIZ001>003-009>011-084-020900-
WESTERN UPPER MICHIGAN

CITY           SKY/WX    TMP DP  RH WIND       PRES   REMARKS
IRON MOUNTAIN  PTCLDY    53  51  93 CALM      29.72F
HOUGHTON       PTCLDY    69  54  58 W12       29.65S
COPPER HARBOR    N/A     64  54  69 VRB5      29.64R
IRONWOOD       CLEAR     68  61  77 SW10      29.66F
$$

ABBREVIATIONS USED IN REMARKS
   TC - TEMPERATURE IN CELSIUS
  WCI - WIND CHILL INDEX
   HX - HEAT INDEX
  VSB - VISIBILITY




USA.gov is the U.S. government's official web portal to all federal, state and local government web resources and services.